EW9994 Weather Reports


time (UTC)temp
C
wind
direction
speed
KPH
gust
KPH
rain 1hr
cm
rain 24hr
cm
rain mn
cm
humidity
%
barometer
mb
20180625190406 20 40 0.0 4.8 0.00 0.00 0.00 60 1016.7
20180625184907 20 32 0.0 4.8 0.00 0.00 0.00 57 1016.5
20180625184406 21 61 4.8 8.0 0.00 0.00 0.00 57 1016.4
20180625183907 21 1 4.8 11.3 0.00 0.00 0.00 56 1016.3
20180625183408 21 352 3.2 14.5 0.00 0.00 0.00 55 1016.3
20180625181407 22 4 4.8 19.3 0.00 0.00 0.00 52 1016.4
20180625180407 22 43 4.8 19.3 0.00 0.00 0.00 52 1016.4
20180625173907 22 75 4.8 9.7 0.00 0.00 0.00 51 1016.3
20180625171906 22 51 8.0 20.9 0.00 0.00 0.00 50 1016.3
20180625171407 22 63 8.0 19.3 0.00 0.00 0.00 50 1016.2
20180625170908 22 29 8.0 20.9 0.00 0.00 0.00 50 1016.1
20180625164907 23 355 9.7 16.1 0.00 0.00 0.00 48 1016.0
20180625164407 23 40 11.3 16.1 0.00 0.00 0.00 47 1016.1
20180625163907 23 70 8.0 19.3 0.00 0.00 0.00 49 1016.1
20180625163407 23 26 11.3 22.5 0.00 0.00 0.00 49 1016.1
20180625161906 23 41 11.3 22.5 0.00 0.00 0.00 48 1016.0
20180625161407 23 15 16.1 24.1 0.00 0.00 0.00 48 1016.0
20180625160407 23 43 11.3 29.0 0.00 0.00 0.00 49 1015.9
20180625154907 23 17 11.3 24.1 0.00 0.00 0.00 49 1015.7
20180625154407 23 22 9.7 24.1 0.00 0.00 0.00 48 1015.9
20180625153907 23 23 4.8 19.3 0.00 0.00 0.00 49 1015.9
20180625153406 23 338 14.5 27.4 0.00 0.00 0.00 49 1016.0
20180625151907 23 49 19.3 27.4 0.00 0.00 0.00 48 1016.0
20180625151407 23 38 14.5 24.1 0.00 0.00 0.00 50 1016.0
20180625150906 23 63 20.9 27.4 0.00 0.00 0.00 48 1016.0
20180625150407 23 51 22.5 33.8 0.00 0.00 0.00 49 1016.1
20180625144906 23 39 9.7 19.3 0.00 0.00 0.00 50 1016.1
20180625144407 23 63 3.2 4.8 0.00 0.00 0.00 51 1016.1
20180625143907 23 10 4.8 24.1 0.00 0.00 0.00 52 1016.2
20180625143407 23 58 12.9 25.7 0.00 0.00 0.00 49 1016.2
20180625141907 23 343 14.5 19.3 0.00 0.00 0.00 51 1016.1
20180625141407 23 357 16.1 27.4 0.00 0.00 0.00 52 1016.1
20180625140406 23 19 14.5 29.0 0.00 0.00 0.00 53 1016.1
20180625134907 22 222 6.4 12.9 0.00 0.00 0.00 54 1016.0
20180625131906 20 148 4.8 9.7 0.00 0.00 0.00 61 1016.3
20180625131406 20 157 1.6 4.8 0.00 0.00 0.00 62 1016.3
20180625130406 20 63 3.2 24.1 0.00 0.00 0.00 61 1016.1
20180625124906 21 55 16.1 37.0 0.00 0.00 0.00 56 1016.3
20180625124406 21 54 20.9 35.4 0.00 0.00 0.00 55 1016.3
20180625123906 22 78 22.5 35.4 0.00 0.00 0.00 54 1016.2
20180625121907 22 355 19.3 33.8 0.00 0.00 0.00 52 1016.0
20180625121406 23 10 16.1 25.7 0.00 0.00 0.00 52 1015.9
20180625120906 23 25 22.5 32.2 0.00 0.00 0.00 50 1015.8
20180625120407 23 23 16.1 29.0 0.00 0.00 0.00 51 1015.7
20180625114906 23 287 8.0 16.1 0.00 0.00 0.00 51 1015.4
20180625114407 23 223 3.2 4.8 0.00 0.00 0.00 51 1015.4
20180625113906 22 335 6.4 14.5 0.00 0.00 0.00 50 1015.3
20180625113407 22 262 3.2 11.3 0.00 0.00 0.00 52 1015.3
20180625111906 22 323 3.2 4.8 0.00 0.00 0.00 52 1015.5
20180625111406 22 193 1.6 12.9 0.00 0.00 0.00 53 1015.5
20180625110907 22 357 8.0 14.5 0.00 0.00 0.00 53 1015.6
20180625110406 22 59 6.4 32.2 0.00 0.00 0.00 54 1015.6
20180625104406 21 41 11.3 20.9 0.00 0.00 0.00 57 1015.6
20180625103407 21 39 19.3 35.4 0.00 0.00 0.00 56 1015.6
20180625101906 21 13 11.3 32.2 0.00 0.00 0.00 57 1015.8
20180625101406 21 336 14.5 24.1 0.00 0.00 0.00 58 1015.7
20180625100406 21 24 11.3 20.9 0.00 0.00 0.00 57 1015.7
20180625094906 21 42 14.5 22.5 0.00 0.00 0.00 57 1015.5
20180625094406 21 32 11.3 22.5 0.00 0.00 0.00 57 1015.4
20180625093906 22 50 14.5 25.7 0.00 0.00 0.00 57 1015.3
20180625091406 22 16 16.1 24.1 0.00 0.00 0.00 58 1015.0
20180625090906 22 33 14.5 25.7 0.00 0.00 0.00 56 1015.0
20180625084907 23 56 12.9 19.3 0.00 0.00 0.00 56 1014.8
20180625084406 22 347 8.0 19.3 0.00 0.00 0.00 57 1014.8
20180625083906 22 217 3.2 4.8 0.00 0.00 0.00 59 1014.8
20180625083406 22 305 1.6 8.0 0.00 0.00 0.00 59 1014.8
20180625081406 23 209 4.8 11.3 0.00 0.00 0.00 58 1014.5
20180625080407 23 212 4.8 9.7 0.00 0.00 0.00 60 1014.4
20180625074406 22 186 3.2 4.8 0.00 0.00 0.00 61 1014.6
20180625073406 21 195 1.6 4.8 0.00 0.00 0.00 62 1014.7
20180625070406 21 208 1.6 4.8 0.00 0.00 0.00 63 1014.7
20180625064906 21 263 1.6 4.8 0.00 0.00 0.00 64 1014.7
20180625064406 21 198 1.6 4.8 0.00 0.00 0.00 65 1014.8
20180625063906 20 92 1.6 3.2 0.00 0.00 0.00 65 1014.8
20180625063406 20 124 1.6 3.2 0.00 0.00 0.00 66 1014.8
20180625061907 19 255 0.0 1.6 0.00 0.00 0.00 69 1014.8
20180625061407 19 231 0.0 3.2 0.00 0.00 0.00 72 1014.8
20180625060906 18 246 0.0 1.6 0.00 0.00 0.00 72 1014.8
20180625060405 19 246 0.0 3.2 0.00 0.00 0.00 72 1014.7
20180625053906 18 131 1.6 1.6 0.00 0.00 0.00 73 1014.8
20180625053406 18 97 0.0 1.6 0.00 0.00 0.00 75 1014.8
20180625051905 17 97 0.0 1.6 0.00 0.00 0.00 78 1014.8
20180625050906 16 107 1.6 3.2 0.00 0.00 0.00 80 1014.7
20180625050406 16 357 1.6 3.2 0.00 0.00 0.00 80 1014.6
20180625044906 16 101 1.6 3.2 0.00 0.00 0.00 80 1014.6
20180625043406 16 41 3.2 11.3 0.00 0.00 0.00 81 1014.4
20180625041406 15 62 4.8 8.0 0.00 0.00 0.00 81 1014.3
20180625040905 15 35 4.8 8.0 0.00 0.00 0.00 80 1014.2
20180625034906 15 113 1.6 3.2 0.00 0.00 0.00 80 1014.1
20180625033906 15 48 4.8 8.0 0.00 0.00 0.00 80 1014.0
20180625033406 15 23 8.0 12.9 0.00 0.00 0.00 80 1014.0
20180625031406 15 45 9.7 11.3 0.00 0.00 0.00 81 1014.1
20180625030906 15 36 4.8 11.3 0.00 0.00 0.00 81 1014.2
20180625030406 15 52 6.4 9.7 0.00 0.00 0.00 81 1014.1
20180625023906 16 57 6.4 11.3 0.00 0.00 0.00 80 1014.1
20180625021405 16 62 4.8 8.0 0.00 0.00 0.00 79 1014.2
20180625020405 16 348 4.8 11.3 0.00 0.00 0.00 79 1014.3
20180625014905 16 48 6.4 12.9 0.00 0.00 0.00 78 1014.3
20180625014406 16 44 8.0 12.9 0.00 0.00 0.00 78 1014.3
20180625013405 16 42 8.0 11.3 0.00 0.00 0.00 78 1014.3
20180625011905 16 49 6.4 9.7 0.00 0.00 0.00 77 1014.4
20180625011406 16 46 4.8 11.3 0.00 0.00 0.00 77 1014.4
20180625010906 16 41 8.0 12.9 0.00 0.00 0.00 77 1014.4
20180625010405 16 39 4.8 12.9 0.00 0.00 0.00 76 1014.4
20180625004405 16 37 8.0 12.9 0.00 0.00 0.00 73 1014.5
20180625003906 16 48 8.0 12.9 0.00 0.00 0.00 73 1014.5
20180625003406 16 42 9.7 12.9 0.00 0.00 0.00 72 1014.6
20180625001405 17 43 8.0 12.9 0.00 0.00 0.00 70 1014.6
20180625000905 17 36 9.7 12.9 0.00 0.00 0.00 70 1014.6
20180625000405 17 42 6.4 12.9 0.00 0.00 0.00 69 1014.6
20180624234906 17 51 4.8 9.7 0.00 0.00 0.00 67 1014.7
20180624233905 17 23 3.2 8.0 0.00 0.00 0.00 66 1014.8
20180624233405 17 41 8.0 11.3 0.00 0.00 0.00 66 1014.8
20180624231905 17 37 8.0 9.7 0.00 0.00 0.00 65 1014.9
20180624231405 17 30 8.0 11.3 0.00 0.00 0.00 65 1015.0
20180624224908 17 43 9.7 12.9 0.00 0.00 0.00 64 1015.1
20180624224408 17 40 8.0 11.3 0.00 0.00 0.00 64 1015.1
20180624223408 17 33 8.0 12.9 0.00 0.00 0.00 63 1015.2
20180624221407 17 30 8.0 12.9 0.00 0.00 0.00 63 1015.1
20180624220907 17 15 8.0 11.3 0.00 0.00 0.00 63 1015.1
20180624214908 18 34 4.8 8.0 0.00 0.00 0.00 62 1015.0
20180624213408 18 82 3.2 8.0 0.00 0.00 0.00 61 1015.0
20180624210909 18 40 9.7 14.5 0.00 0.00 0.00 59 1015.1
20180624210407 19 51 8.0 12.9 0.00 0.00 0.00 58 1015.0
20180624203908 20 53 8.0 9.7 0.00 0.00 0.00 56 1015.1
20180624203409 20 71 8.0 8.0 0.00 0.00 0.00 56 1015.1
20180624201907 21 38 4.8 8.0 0.00 0.00 0.00 55 1015.0
20180624201408 21 52 4.8 4.8 0.00 0.00 0.00 55 1015.0
20180624200909 21 58 1.6 3.2 0.00 0.00 0.00 55 1014.9
20180624200407 21 58 0.0 4.8 0.00 0.00 0.00 53 1015.0
20180624194907 21 62 8.0 9.7 0.00 0.00 0.00 52 1014.7
20180624193911 21 54 9.7 12.9 0.00 0.00 0.00 52 1014.7
20180624193408 21 69 8.0 14.5 0.00 0.00 0.00 52 1014.6